Flag for U.S.A. Weather past 2 weeks in Santa Clarita, California, U.S.A.

Now
76 °F

Sunny.


Feels Like: 77 °F
Forecast: 58 / 89 °F
Wind: No wind

Location: Van Nuys Airport

Current Time: Mar 27, 2015 at 10:39:11 AM

Latest Report: Mar 27, 2015 at 9:51 AM


Visibility: 10 mi

Pressure: 30.07 "Hg

Humidity: 24%

Dew point: 36 °F

Location of Santa ClaritaLocation

Historic Weather in Santa Clarita — Graph

°F

Santa Clarita temperature yesterday

Maximum temperature yesterday: 91 °F (at 1:51 PM)
Minimum temperature yesterday: 57 °F (at 5:51 AM)
Average temperature yesterday: 75 °F

Past Weeks' High & Low Weather Summary

 TemperatureHumidityPressure
High91 °F (Mar 14, 3:51 PM)93% (Mar 20, 5:51 AM)30.16 "Hg (Mar 20, 5:51 AM)
Low52 °F (Mar 23, 5:51 AM)11% (Mar 13, 4:51 PM)29.85 "Hg (Mar 16, 5:51 PM)
Average70 °F45%30.01 "Hg
* Reported Mar 12 8:51 AM — Mar 27 8:51 AM, Santa Clarita, Weather by CustomWeather, © 2015

Note: Actual official high and low records may vary slightly from our data, if they occured in-between our weather recording intervals... More about our weather records

Advertising

Santa Clarita weather history for previous 24 hours

 ConditionsComfort  
Time TempWeatherWind HumidityBarometerVisibility
8:51 AM
Fri, Mar 27
69 °FSunny.No wind35%30.07 "Hg10 mi
7:51 AM62 °FSunny.No wind50%30.06 "Hg10 mi
6:51 AM59 °FClear.No wind54%30.04 "Hg10 mi
5:51 AM60 °FClear.No wind52%30.03 "Hg10 mi
4:51 AM62 °FClear.3 mph46%30.02 "Hg10 mi
3:51 AM62 °FClear.No wind46%30.02 "Hg10 mi
2:51 AM63 °FClear.5 mph45%30.03 "Hg10 mi
1:51 AM66 °FClear.No wind39%30.03 "Hg10 mi
12:51 AM65 °FClear.No wind40%30.02 "Hg10 mi
11:51 PM
Thu, Mar 26
70 °FClear.5 mph29%30.03 "Hg10 mi
10:51 PM72 °FClear.5 mph27%30.03 "Hg10 mi
9:51 PM75 °FClear.5 mph22%30.03 "Hg10 mi
8:51 PM77 °FClear.6 mph19%30.02 "Hg10 mi
7:51 PM80 °FSunny.5 mph17%30.00 "Hg10 mi
6:51 PM83 °FSunny.8 mph15%29.98 "Hg10 mi
5:51 PM88 °FSunny.7 mph14%29.97 "Hg10 mi
4:51 PM89 °FSunny.10 mph14%29.97 "Hg10 mi
3:51 PM89 °FSunny.15 mph14%29.98 "Hg10 mi
2:51 PM89 °FSunny.15 mph15%29.99 "Hg10 mi
1:51 PM91 °FSunny.7 mph11%30.01 "Hg10 mi
12:51 PM90 °FSunny.5 mph13%30.03 "Hg10 mi
11:51 AM87 °FSunny.5 mph14%30.06 "Hg10 mi
10:51 AM84 °FSunny.9 mph15%30.07 "Hg10 mi
Weather by CustomWeather, © 2015

See weather overviewHow to use our weather pages